QPF
0.00 0.00 0.00 0.00 0.00 0.00 0.00 0.00 0.00 0.00 0.01 0.01 0.00 0.00 0.00 0.00 0.00 0.00 0.00 0.00 0.00 0.00 0.00 0.01 0.01 0.01 0.01 0.01 0.01 0.02 0.02 0.02 0.03 0.03 0.03 0.02 0.01 0.01 0.01 0.01 0.01 0.01 0.02 0.02 0.01 0.01 0.01 0.01 0.01
0.00 0.00 0.00 0.00 0.00 0.00 0.00 0.00 0.00 0.00 0.00 0.00 0.00 0.00 0.00 0.00 0.00 0.00 0.00 0.00 0.00 0.00 0.00 0.00 0.01 0.02 0.01 0.02 0.02 0.02 0.02 0.03 0.04 0.04 0.03 0.03 0.03 0.02 0.02 0.02 0.02 0.02 0.02 0.03 0.02 0.00 0.00 0.01 0.01
0.00 0.00 0.00 0.00 0.00 0.00 0.00 0.00 0.00 0.00 0.00 0.00 0.00 0.00 0.01 0.00 0.00 0.00 0.00 0.00 0.00 0.00 0.00 0.00 0.01 0.02 0.02 0.02 0.03 0.02 0.03 0.04 0.05 0.05 0.03 0.04 0.04 0.04 0.03 0.01 0.02 0.02 0.03 0.03 0.02 0.00 0.00 0.00 0.01
0.00 0.00 0.00 0.00 0.00 0.00 0.00 0.00 0.00 0.00 0.00 0.00 0.00 0.01 0.00 0.00 0.00 0.00 0.00 0.00 0.00 0.00 0.00 0.00 0.02 0.02 0.02 0.02 0.02 0.02 0.03 0.04 0.05 0.05 0.05 0.05 0.05 0.05 0.03 0.02 0.02 0.01 0.02 0.02 0.01 0.01 0.00 0.00 0.01
0.00 0.00 0.00 0.00 0.00 0.00 0.00 0.00 0.00 0.00 0.00 0.01 0.01 0.00 0.00 0.01 0.00 0.00 0.00 0.01 0.01 0.00 0.00 0.01 0.02 0.03 0.02 0.02 0.03 0.02 0.02 0.03 0.05 0.06 0.06 0.06 0.07 0.06 0.04 0.03 0.02 0.02 0.02 0.02 0.02 0.01 0.01 0.00 0.00
0.00 0.00 0.00 0.00 0.00 0.00 0.00 0.00 0.00 0.00 0.01 0.01 0.01 0.00 0.01 0.01 0.00 0.00 0.00 0.01 0.02 0.01 0.01 0.01 0.03 0.04 0.03 0.02 0.02 0.02 0.03 0.03 0.04 0.06 0.06 0.07 0.09 0.07 0.05 0.03 0.03 0.03 0.03 0.02 0.02 0.01 0.01 0.00 0.00
0.00 0.00 0.00 0.00 0.00 0.00 0.00 0.00 0.00 0.00 0.00 0.01 0.01 0.01 0.01 0.01 0.00 0.01 0.00 0.01 0.02 0.02 0.02 0.01 0.02 0.06 0.06 0.04 0.02 0.02 0.03 0.03 0.03 0.05 0.06 0.08 0.11 0.09 0.05 0.03 0.03 0.04 0.03 0.02 0.01 0.01 0.01 0.00 0.01
0.00 0.00 0.00 0.00 0.00 0.00 0.00 0.00 0.00 0.00 0.00 0.00 0.01 0.01 0.01 0.01 0.01 0.01 0.01 0.01 0.02 0.02 0.02 0.02 0.02 0.04 0.07 0.04 0.02 0.02 0.03 0.02 0.03 0.04 0.06 0.07 0.09 0.09 0.06 0.03 0.02 0.04 0.03 0.02 0.01 0.01 0.01 0.01 0.00
0.00 0.00 0.00 0.00 0.00 0.00 0.00 0.00 0.00 0.00 0.00 0.01 0.02 0.01 0.01 0.01 0.03 0.03 0.02 0.02 0.02 0.03 0.04 0.03 0.03 0.03 0.06 0.05 0.03 0.03 0.03 0.03 0.03 0.03 0.05 0.08 0.10 0.09 0.07 0.04 0.02 0.03 0.02 0.02 0.02 0.01 0.01 0.01 0.01
0.00 0.00 0.00 0.00 0.00 0.00 0.00 0.00 0.00 0.00 0.00 0.01 0.02 0.02 0.02 0.03 0.03 0.03 0.02 0.02 0.02 0.03 0.04 0.04 0.03 0.03 0.07 0.06 0.02 0.03 0.03 0.03 0.03 0.03 0.06 0.10 0.09 0.09 0.06 0.04 0.03 0.03 0.03 0.02 0.02 0.02 0.02 0.01 0.01
0.00 0.00 0.00 0.00 0.00 0.00 0.00 0.00 0.00 0.00 0.00 0.01 0.02 0.02 0.03 0.03 0.04 0.03 0.02 0.02 0.03 0.03 0.04 0.06 0.04 0.03 0.06 0.08 0.03 0.02 0.02 0.03 0.04 0.04 0.06 0.11 0.11 0.10 0.08 0.04 0.04 0.04 0.03 0.02 0.02 0.02 0.02 0.01 0.01
0.00 0.00 0.00 0.00 0.00 0.00 0.00 0.00 0.00 0.00 0.00 0.00 0.01 0.02 0.03 0.03 0.03 0.03 0.03 0.02 0.02 0.04 0.05 0.06 0.05 0.05 0.06 0.08 0.06 0.04 0.03 0.03 0.03 0.03 0.07 0.14 0.15 0.12 0.09 0.05 0.04 0.03 0.02 0.02 0.02 0.02 0.02 0.01 0.01
0.00 0.00 0.00 0.00 0.00 0.00 0.00 0.00 0.00 0.00 0.01 0.01 0.02 0.02 0.02 0.02 0.01 0.02 0.04 0.04 0.03 0.03 0.05 0.07 0.07 0.07 0.06 0.06 0.05 0.05 0.05 0.04 0.04 0.04 0.07 0.12 0.17 0.15 0.10 0.06 0.05 0.04 0.03 0.03 0.02 0.01 0.02 0.02 0.02
0.00 0.00 0.00 0.00 0.01 0.00 0.00 0.00 0.00 0.00 0.00 0.01 0.02 0.03 0.03 0.02 0.01 0.02 0.04 0.05 0.04 0.04 0.05 0.08 0.09 0.09 0.06 0.05 0.05 0.05 0.05 0.06 0.05 0.06 0.07 0.12 0.17 0.21 0.15 0.08 0.06 0.05 0.04 0.03 0.03 0.02 0.02 0.01 0.02
0.00 0.00 0.00 0.01 0.01 0.01 0.01 0.01 0.00 0.00 0.00 0.01 0.02 0.04 0.04 0.03 0.02 0.02 0.02 0.04 0.04 0.04 0.06 0.07 0.09 0.11 0.08 0.06 0.05 0.04 0.05 0.07 0.07 0.07 0.08 0.10 0.17 0.23 0.20 0.12 0.09 0.06 0.04 0.03 0.02 0.02 0.01 0.01 0.01
0.01 0.00 0.00 0.01 0.01 0.01 0.02 0.01 0.00 0.00 0.00 0.01 0.01 0.04 0.05 0.04 0.04 0.02 0.02 0.03 0.04 0.04 0.05 0.06 0.09 0.10 0.10 0.07 0.06 0.04 0.05 0.09 0.10 0.08 0.09 0.09 0.14 0.19 0.19 0.14 0.13 0.10 0.06 0.03 0.03 0.03 0.02 0.02 0.02
0.01 0.01 0.00 0.00 0.01 0.01 0.01 0.01 0.00 0.01 0.00 0.01 0.01 0.04 0.07 0.05 0.04 0.03 0.02 0.02 0.04 0.05 0.05 0.07 0.10 0.10 0.10 0.09 0.07 0.04 0.04 0.09 0.15 0.12 0.12 0.11 0.13 0.14 0.17 0.14 0.13 0.14 0.10 0.05 0.04 0.03 0.03 0.02 0.02
0.01 0.01 0.00 0.01 0.01 0.01 0.01 0.01 0.01 0.01 0.01 0.01 0.01 0.02 0.05 0.08 0.05 0.05 0.03 0.02 0.03 0.05 0.06 0.08 0.11 0.10 0.08 0.08 0.08 0.06 0.05 0.08 0.15 0.15 0.14 0.15 0.14 0.11 0.12 0.12 0.10 0.12 0.15 0.09 0.04 0.03 0.03 0.03 0.02
0.00 0.00 0.00 0.01 0.01 0.01 0.01 0.00 0.00 0.01 0.01 0.01 0.01 0.01 0.02 0.08 0.10 0.06 0.04 0.02 0.03 0.05 0.06 0.08 0.11 0.11 0.09 0.08 0.09 0.08 0.07 0.08 0.12 0.16 0.15 0.17 0.15 0.10 0.09 0.09 0.07 0.07 0.13 0.15 0.08 0.03 0.03 0.02 0.02
0.00 0.00 0.00 0.01 0.01 0.01 0.01 0.01 0.01 0.01 0.01 0.01 0.01 0.01 0.02 0.05 0.11 0.09 0.08 0.03 0.03 0.06 0.07 0.08 0.10 0.13 0.10 0.09 0.08 0.07 0.08 0.07 0.09 0.14 0.17 0.15 0.12 0.10 0.08 0.07 0.05 0.04 0.07 0.12 0.13 0.06 0.03 0.02 0.02
0.01 0.00 0.00 0.01 0.02 0.02 0.01 0.01 0.01 0.01 0.01 0.01 0.01 0.01 0.02 0.03 0.06 0.06 0.07 0.05 0.05 0.07 0.09 0.08 0.08 0.09 0.09 0.07 0.07 0.06 0.07 0.07 0.08 0.10 0.15 0.15 0.12 0.09 0.08 0.06 0.05 0.04 0.03 0.06 0.09 0.08 0.04 0.03 0.02
0.01 0.00 0.01 0.01 0.02 0.02 0.01 0.01 0.00 0.01 0.01 0.01 0.01 0.01 0.01 0.02 0.03 0.04 0.03 0.03 0.04 0.06 0.09 0.09 0.07 0.08 0.07 0.06 0.06 0.06 0.06 0.08 0.07 0.08 0.11 0.13 0.12 0.09 0.07 0.06 0.05 0.04 0.03 0.03 0.04 0.05 0.05 0.04 0.03
0.01 0.01 0.02 0.02 0.02 0.02 0.01 0.01 0.00 0.00 0.00 0.01 0.01 0.01 0.02 0.01 0.02 0.03 0.02 0.01 0.02 0.04 0.08 0.10 0.08 0.08 0.06 0.06 0.05 0.04 0.06 0.07 0.08 0.07 0.07 0.10 0.10 0.08 0.06 0.06 0.06 0.04 0.03 0.02 0.02 0.02 0.03 0.03 0.03
0.01 0.03 0.04 0.03 0.04 0.05 0.01 0.01 0.00 0.00 0.00 0.01 0.01 0.01 0.01 0.01 0.01 0.01 0.02 0.01 0.01 0.03 0.05 0.09 0.10 0.09 0.09 0.08 0.06 0.04 0.06 0.07 0.09 0.07 0.07 0.07 0.08 0.07 0.05 0.05 0.05 0.05 0.03 0.02 0.01 0.01 0.02 0.02 0.03
0.02 0.05 0.07 0.08 0.07 0.04 0.01 0.01 0.00 0.00 0.00 0.00 0.00 0.00 0.01 0.01 0.01 0.01 0.01 0.01 0.01 0.02 0.04 0.06 0.09 0.10 0.10 0.10 0.07 0.04 0.06 0.09 0.08 0.08 0.06 0.05 0.05 0.05 0.05 0.04 0.03 0.04 0.04 0.02 0.01 0.01 0.01 0.02 0.02
0.02 0.03 0.04 0.03 0.02 0.01 0.01 0.00 0.00 0.00 0.00 0.00 0.00 0.00 0.00 0.00 0.01 0.01 0.01 0.01 0.01 0.01 0.03 0.04 0.06 0.09 0.10 0.10 0.09 0.06 0.06 0.07 0.09 0.08 0.06 0.05 0.03 0.03 0.04 0.04 0.03 0.03 0.04 0.03 0.02 0.02 0.01 0.01 0.02
0.03 0.03 0.02 0.02 0.02 0.01 0.00 0.00 0.00 0.00 0.00 0.00 0.00 0.00 0.00 0.00 0.00 0.00 0.01 0.01 0.00 0.01 0.02 0.04 0.04 0.06 0.07 0.07 0.08 0.08 0.07 0.06 0.07 0.08 0.07 0.05 0.04 0.03 0.03 0.03 0.03 0.02 0.03 0.03 0.03 0.02 0.02 0.02 0.02
0.03 0.03 0.04 0.05 0.04 0.02 0.01 0.00 0.01 0.01 0.00 0.00 0.00 0.00 0.00 0.00 0.00 0.00 0.00 0.00 0.00 0.00 0.01 0.02 0.04 0.05 0.06 0.06 0.07 0.07 0.07 0.06 0.05 0.06 0.07 0.06 0.04 0.03 0.03 0.02 0.02 0.02 0.02 0.02 0.03 0.02 0.02 0.02 0.01
0.04 0.05 0.05 0.04 0.02 0.02 0.02 0.02 0.01 0.00 0.00 0.00 0.00 0.00 0.00 0.00 0.00 0.00 0.00 0.00 0.01 0.01 0.01 0.02 0.03 0.04 0.04 0.05 0.06 0.05 0.04 0.04 0.04 0.05 0.06 0.06 0.04 0.03 0.03 0.02 0.03 0.02 0.02 0.02 0.01 0.02 0.02 0.02 0.01
0.03 0.04 0.04 0.05 0.03 0.01 0.01 0.02 0.02 0.00 0.00 0.00 0.00 0.00 0.00 0.00 0.00 0.00 0.00 0.00 0.00 0.01 0.01 0.02 0.02 0.03 0.04 0.04 0.05 0.05 0.03 0.02 0.02 0.03 0.05 0.05 0.05 0.03 0.03 0.03 0.02 0.02 0.02 0.02 0.02 0.01 0.01 0.01 0.01
MSLP
1014.25 1014.77 1015.39 1015.99 1016.47 1016.74 1016.75 1016.47 1015.96 1015.30 1014.60 1013.98 1013.52 1013.26 1013.21 1013.29 1013.45 1013.57 1013.59 1013.46 1013.21 1012.85 1012.48 1012.15 1011.93 1011.86 1011.92 1012.07 1012.27 1012.47 1012.62 1012.72 1012.77 1012.83 1012.91 1013.06 1013.29 1013.59 1013.92 1014.26 1014.56 1014.82 1015.03 1015.21 1015.37 1015.55 1015.77 1016.02 1016.29
1014.58 1015.14 1015.72 1016.21 1016.52 1016.59 1016.38 1015.91 1015.26 1014.52 1013.81 1013.22 1012.82 1012.63 1012.63 1012.76 1012.93 1013.06 1013.09 1013.00 1012.78 1012.49 1012.20 1011.96 1011.82 1011.80 1011.89 1012.05 1012.24 1012.41 1012.54 1012.62 1012.67 1012.73 1012.83 1012.99 1013.22 1013.51 1013.84 1014.17 1014.47 1014.74 1014.97 1015.17 1015.37 1015.59 1015.83 1016.10 1016.38
1014.97 1015.52 1016.02 1016.36 1016.47 1016.33 1015.92 1015.30 1014.56 1013.79 1013.10 1012.58 1012.25 1012.13 1012.17 1012.31 1012.47 1012.58 1012.60 1012.51 1012.33 1012.12 1011.92 1011.77 1011.73 1011.78 1011.92 1012.09 1012.27 1012.41 1012.50 1012.55 1012.58 1012.62 1012.71 1012.86 1013.08 1013.36 1013.68 1014.00 1014.32 1014.60 1014.86 1015.11 1015.36 1015.62 1015.90 1016.20 1016.50
1015.40 1015.90 1016.27 1016.44 1016.35 1016.01 1015.44 1014.71 1013.93 1013.18 1012.56 1012.11 1011.87 1011.80 1011.86 1011.98 1012.10 1012.16 1012.14 1012.05 1011.91 1011.77 1011.67 1011.64 1011.70 1011.84 1012.01 1012.20 1012.35 1012.46 1012.50 1012.51 1012.49 1012.50 1012.56 1012.69 1012.89 1013.16 1013.47 1013.79 1014.12 1014.44 1014.74 1015.05 1015.35 1015.67 1016.00 1016.33 1016.65
1015.80 1016.22 1016.45 1016.44 1016.17 1015.65 1014.97 1014.18 1013.41 1012.73 1012.20 1011.85 1011.68 1011.65 1011.70 1011.78 1011.83 1011.82 1011.76 1011.66 1011.56 1011.49 1011.49 1011.58 1011.74 1011.95 1012.16 1012.35 1012.48 1012.53 1012.52 1012.46 1012.39 1012.36 1012.38 1012.48 1012.66 1012.91 1013.21 1013.55 1013.91 1014.27 1014.63 1015.00 1015.37 1015.75 1016.12 1016.49 1016.84
1016.13 1016.44 1016.52 1016.34 1015.91 1015.27 1014.52 1013.73 1013.01 1012.43 1012.01 1011.77 1011.67 1011.65 1011.68 1011.69 1011.65 1011.57 1011.45 1011.34 1011.27 1011.28 1011.38 1011.56 1011.81 1012.08 1012.33 1012.50 1012.59 1012.59 1012.51 1012.38 1012.26 1012.17 1012.15 1012.21 1012.37 1012.61 1012.92 1013.28 1013.67 1014.09 1014.52 1014.95 1015.39 1015.83 1016.26 1016.66 1017.04
1016.30 1016.50 1016.44 1016.11 1015.56 1014.85 1014.08 1013.34 1012.71 1012.25 1011.95 1011.81 1011.76 1011.75 1011.73 1011.66 1011.54 1011.38 1011.21 1011.09 1011.05 1011.11 1011.29 1011.56 1011.88 1012.19 1012.44 1012.60 1012.65 1012.59 1012.44 1012.25 1012.07 1011.93 1011.87 1011.90 1012.04 1012.27 1012.59 1012.97 1013.41 1013.89 1014.38 1014.89 1015.40 1015.90 1016.38 1016.82 1017.22
1016.29 1016.37 1016.18 1015.74 1015.10 1014.37 1013.63 1012.96 1012.45 1012.11 1011.93 1011.87 1011.86 1011.85 1011.78 1011.65 1011.45 1011.22 1011.01 1010.88 1010.86 1010.97 1011.20 1011.53 1011.88 1012.21 1012.46 1012.60 1012.61 1012.50 1012.30 1012.06 1011.83 1011.65 1011.55 1011.56 1011.67 1011.90 1012.22 1012.63 1013.11 1013.64 1014.21 1014.79 1015.37 1015.92 1016.45 1016.93 1017.35
1016.09 1016.05 1015.74 1015.22 1014.55 1013.82 1013.13 1012.57 1012.17 1011.95 1011.87 1011.87 1011.89 1011.87 1011.77 1011.58 1011.32 1011.05 1010.81 1010.68 1010.67 1010.81 1011.08 1011.42 1011.80 1012.13 1012.37 1012.49 1012.47 1012.34 1012.11 1011.85 1011.58 1011.37 1011.24 1011.21 1011.29 1011.50 1011.83 1012.25 1012.77 1013.35 1013.98 1014.63 1015.27 1015.89 1016.46 1016.97 1017.43
1015.74 1015.59 1015.19 1014.61 1013.93 1013.23 1012.61 1012.14 1011.85 1011.72 1011.70 1011.75 1011.78 1011.75 1011.62 1011.40 1011.12 1010.82 1010.59 1010.46 1010.47 1010.62 1010.89 1011.24 1011.61 1011.93 1012.16 1012.27 1012.26 1012.13 1011.91 1011.64 1011.37 1011.13 1010.97 1010.90 1010.95 1011.13 1011.43 1011.86 1012.40 1013.02 1013.71 1014.41 1015.12 1015.79 1016.41 1016.97 1017.46
1015.31 1015.06 1014.59 1013.98 1013.31 1012.65 1012.10 1011.70 1011.47 1011.39 1011.41 1011.47 1011.49 1011.45 1011.31 1011.08 1010.81 1010.53 1010.32 1010.21 1010.23 1010.38 1010.64 1010.97 1011.32 1011.63 1011.86 1011.99 1012.00 1011.91 1011.72 1011.49 1011.22 1010.98 1010.79 1010.67 1010.67 1010.80 1011.07 1011.49 1012.03 1012.68 1013.41 1014.17 1014.93 1015.66 1016.33 1016.93 1017.46
1014.91 1014.57 1014.06 1013.43 1012.77 1012.16 1011.65 1011.29 1011.08 1011.00 1011.00 1011.02 1011.02 1010.96 1010.82 1010.61 1010.37 1010.15 1009.99 1009.91 1009.95 1010.10 1010.34 1010.65 1010.97 1011.27 1011.51 1011.67 1011.74 1011.71 1011.59 1011.41 1011.17 1010.93 1010.71 1010.55 1010.48 1010.55 1010.77 1011.15 1011.69 1012.36 1013.12 1013.93 1014.75 1015.53 1016.25 1016.90 1017.47
1014.62 1014.21 1013.67 1013.04 1012.41 1011.82 1011.33 1010.96 1010.72 1010.58 1010.50 1010.45 1010.40 1010.30 1010.17 1010.01 1009.84 1009.69 1009.60 1009.58 1009.65 1009.79 1010.01 1010.28 1010.57 1010.86 1011.12 1011.33 1011.47 1011.53 1011.50 1011.38 1011.19 1010.96 1010.71 1010.49 1010.36 1010.36 1010.52 1010.87 1011.39 1012.07 1012.87 1013.72 1014.59 1015.43 1016.21 1016.90 1017.52
1014.47 1014.03 1013.48 1012.87 1012.25 1011.68 1011.17 1010.76 1010.42 1010.17 1009.97 1009.81 1009.66 1009.53 1009.40 1009.29 1009.21 1009.17 1009.17 1009.22 1009.32 1009.47 1009.67 1009.90 1010.16 1010.44 1010.71 1010.97 1011.19 1011.33 1011.39 1011.35 1011.21 1010.98 1010.72 1010.46 1010.27 1010.21 1010.31 1010.63 1011.15 1011.84 1012.67 1013.57 1014.50 1015.39 1016.22 1016.97 1017.63
1014.46 1014.01 1013.47 1012.89 1012.30 1011.73 1011.19 1010.69 1010.23 1009.82 1009.45 1009.14 1008.89 1008.70 1008.57 1008.52 1008.53 1008.60 1008.71 1008.84 1008.99 1009.16 1009.33 1009.53 1009.75 1010.00 1010.28 1010.57 1010.84 1011.06 1011.19 1011.21 1011.11 1010.91 1010.63 1010.35 1010.12 1010.02 1010.10 1010.40 1010.93 1011.65 1012.51 1013.47 1014.45 1015.41 1016.29 1017.09 1017.81
1014.50 1014.07 1013.57 1013.04 1012.49 1011.92 1011.33 1010.72 1010.12 1009.52 1008.97 1008.49 1008.11 1007.85 1007.73 1007.73 1007.84 1008.03 1008.25 1008.48 1008.68 1008.86 1009.01 1009.17 1009.34 1009.56 1009.81 1010.10 1010.39 1010.64 1010.82 1010.88 1010.81 1010.62 1010.36 1010.07 1009.84 1009.74 1009.83 1010.15 1010.71 1011.47 1012.39 1013.40 1014.44 1015.45 1016.39 1017.25 1018.01
1014.52 1014.12 1013.69 1013.22 1012.71 1012.14 1011.51 1010.81 1010.05 1009.27 1008.53 1007.88 1007.37 1007.05 1006.91 1006.97 1007.17 1007.47 1007.81 1008.13 1008.40 1008.60 1008.74 1008.85 1008.96 1009.11 1009.30 1009.54 1009.81 1010.05 1010.23 1010.30 1010.25 1010.08 1009.84 1009.59 1009.39 1009.33 1009.48 1009.85 1010.47 1011.29 1012.26 1013.33 1014.42 1015.48 1016.47 1017.38 1018.19
1014.41 1014.07 1013.71 1013.32 1012.87 1012.32 1011.66 1010.87 1009.98 1009.05 1008.14 1007.33 1006.70 1006.31 1006.17 1006.26 1006.55 1006.96 1007.41 1007.82 1008.15 1008.38 1008.51 1008.57 1008.61 1008.67 1008.77 1008.93 1009.11 1009.29 1009.43 1009.48 1009.43 1009.29 1009.09 1008.89 1008.77 1008.80 1009.03 1009.50 1010.20 1011.09 1012.12 1013.24 1014.37 1015.47 1016.49 1017.43 1018.29
1014.16 1013.87 1013.59 1013.27 1012.89 1012.38 1011.71 1010.87 1009.89 1008.83 1007.78 1006.85 1006.12 1005.67 1005.52 1005.65 1006.01 1006.51 1007.05 1007.56 1007.95 1008.21 1008.34 1008.36 1008.32 1008.28 1008.27 1008.30 1008.37 1008.45 1008.50 1008.50 1008.43 1008.31 1008.17 1008.06 1008.05 1008.20 1008.55 1009.13 1009.92 1010.88 1011.97 1013.11 1014.27 1015.37 1016.41 1017.38 1018.26
1013.81 1013.56 1013.33 1013.09 1012.76 1012.30 1011.64 1010.78 1009.75 1008.62 1007.48 1006.46 1005.66 1005.17 1005.00 1005.15 1005.56 1006.13 1006.75 1007.33 1007.79 1008.09 1008.22 1008.21 1008.11 1007.97 1007.84 1007.73 1007.66 1007.61 1007.56 1007.49 1007.40 1007.30 1007.22 1007.21 1007.33 1007.61 1008.09 1008.79 1009.67 1010.69 1011.81 1012.96 1014.10 1015.20 1016.22 1017.18 1018.07
1013.48 1013.23 1013.03 1012.83 1012.56 1012.13 1011.51 1010.66 1009.62 1008.45 1007.28 1006.21 1005.36 1004.83 1004.64 1004.79 1005.22 1005.83 1006.51 1007.14 1007.65 1007.99 1008.14 1008.13 1007.98 1007.77 1007.53 1007.30 1007.10 1006.92 1006.76 1006.62 1006.50 1006.41 1006.40 1006.49 1006.73 1007.15 1007.76 1008.56 1009.51 1010.56 1011.68 1012.81 1013.91 1014.95 1015.93 1016.85 1017.73
1013.35 1013.05 1012.84 1012.65 1012.39 1012.00 1011.41 1010.59 1009.57 1008.41 1007.23 1006.14 1005.27 1004.70 1004.48 1004.60 1005.01 1005.61 1006.30 1006.97 1007.52 1007.89 1008.08 1008.08 1007.93 1007.68 1007.38 1007.06 1006.75 1006.47 1006.22 1006.02 1005.87 1005.81 1005.85 1006.03 1006.38 1006.91 1007.62 1008.49 1009.47 1010.53 1011.61 1012.68 1013.71 1014.67 1015.58 1016.44 1017.28
1013.57 1013.19 1012.92 1012.69 1012.42 1012.04 1011.47 1010.68 1009.69 1008.57 1007.40 1006.32 1005.43 1004.82 1004.54 1004.59 1004.93 1005.49 1006.14 1006.79 1007.36 1007.77 1008.00 1008.04 1007.92 1007.68 1007.37 1007.01 1006.65 1006.31 1006.00 1005.76 1005.60 1005.56 1005.65 1005.90 1006.33 1006.93 1007.70 1008.60 1009.58 1010.61 1011.63 1012.61 1013.54 1014.41 1015.23 1016.01 1016.79
1014.27 1013.78 1013.40 1013.09 1012.77 1012.36 1011.79 1011.03 1010.09 1009.00 1007.87 1006.79 1005.88 1005.21 1004.85 1004.80 1005.03 1005.47 1006.03 1006.63 1007.17 1007.59 1007.86 1007.97 1007.92 1007.74 1007.46 1007.13 1006.77 1006.42 1006.10 1005.85 1005.70 1005.67 1005.80 1006.10 1006.57 1007.21 1007.99 1008.88 1009.83 1010.80 1011.74 1012.62 1013.45 1014.22 1014.94 1015.64 1016.34
1015.48 1014.84 1014.34 1013.92 1013.52 1013.05 1012.46 1011.72 1010.80 1009.76 1008.66 1007.59 1006.65 1005.92 1005.44 1005.24 1005.31 1005.58 1006.01 1006.49 1006.97 1007.38 1007.68 1007.85 1007.88 1007.79 1007.61 1007.35 1007.05 1006.73 1006.45 1006.22 1006.09 1006.09 1006.24 1006.56 1007.04 1007.68 1008.44 1009.29 1010.18 1011.07 1011.92 1012.72 1013.45 1014.13 1014.77 1015.39 1016.02
1017.10 1016.34 1015.70 1015.15 1014.64 1014.11 1013.49 1012.74 1011.85 1010.84 1009.77 1008.71 1007.74 1006.92 1006.31 1005.94 1005.80 1005.88 1006.11 1006.43 1006.80 1007.16 1007.46 1007.68 1007.80 1007.82 1007.75 1007.59 1007.39 1007.16 1006.94 1006.76 1006.67 1006.69 1006.86 1007.18 1007.65 1008.26 1008.98 1009.77 1010.58 1011.39 1012.16 1012.88 1013.54 1014.16 1014.74 1015.31 1015.88
1018.99 1018.12 1017.36 1016.69 1016.08 1015.47 1014.80 1014.04 1013.18 1012.21 1011.17 1010.11 1009.11 1008.21 1007.46 1006.90 1006.54 1006.38 1006.39 1006.52 1006.74 1007.01 1007.27 1007.51 1007.70 1007.81 1007.85 1007.82 1007.73 1007.61 1007.47 1007.36 1007.32 1007.37 1007.55 1007.85 1008.30 1008.86 1009.52 1010.24 1010.99 1011.73 1012.43 1013.10 1013.72 1014.30 1014.86 1015.40 1015.93
1020.92 1019.98 1019.14 1018.38 1017.68 1017.00 1016.30 1015.53 1014.69 1013.75 1012.75 1011.72 1010.69 1009.72 1008.85 1008.11 1007.54 1007.14 1006.91 1006.82 1006.86 1006.99 1007.19 1007.41 1007.62 1007.80 1007.94 1008.01 1008.03 1008.01 1007.96 1007.93 1007.94 1008.02 1008.21 1008.50 1008.91 1009.43 1010.02 1010.68 1011.36 1012.04 1012.71 1013.35 1013.96 1014.54 1015.09 1015.63 1016.15
1022.66 1021.72 1020.85 1020.04 1019.29 1018.56 1017.84 1017.08 1016.26 1015.37 1014.42 1013.42 1012.39 1011.38 1010.42 1009.54 1008.78 1008.17 1007.71 1007.40 1007.24 1007.22 1007.29 1007.45 1007.64 1007.84 1008.03 1008.17 1008.28 1008.34 1008.38 1008.41 1008.47 1008.59 1008.79 1009.07 1009.45 1009.93 1010.47 1011.07 1011.70 1012.34 1012.98 1013.61 1014.23 1014.82 1015.40 1015.96 1016.49
1024.06 1023.17 1022.32 1021.51 1020.74 1020.01 1019.28 1018.54 1017.77 1016.94 1016.05 1015.10 1014.11 1013.09 1012.08 1011.11 1010.21 1009.43 1008.77 1008.26 1007.91 1007.71 1007.64 1007.69 1007.82 1007.99 1008.17 1008.35 1008.50 1008.62 1008.71 1008.81 1008.92 1009.07 1009.28 1009.57 1009.93 1010.37 1010.88 1011.43 1012.02 1012.63 1013.25 1013.88 1014.50 1015.12 1015.72 1016.30 1016.85
Thickness
5703 5705 5704 5697 5679 5663 5668 5683 5696 5704 5709 5717 5720 5718 5714 5712 5710 5708 5720 5726 5726 5725 5725 5724 5723 5723 5722 5722 5721 5721 5721 5721 5721 5721 5722 5722 5722 5722 5722 5721 5721 5721 5720 5720 5720 5719 5719 5718 5718
5699 5699 5693 5681 5664 5655 5665 5682 5693 5702 5710 5714 5715 5713 5710 5709 5715 5715 5717 5721 5722 5721 5720 5720 5719 5719 5718 5718 5718 5717 5717 5717 5717 5718 5718 5718 5718 5718 5718 5718 5718 5718 5717 5717 5716 5716 5715 5715 5715
5694 5693 5679 5666 5659 5659 5672 5687 5692 5702 5707 5708 5705 5706 5705 5705 5710 5711 5715 5717 5717 5716 5715 5715 5715 5714 5714 5714 5714 5714 5713 5713 5714 5714 5714 5715 5715 5715 5715 5715 5715 5714 5714 5713 5713 5713 5712 5712 5712
5685 5677 5668 5659 5661 5668 5678 5688 5691 5695 5700 5702 5699 5695 5700 5706 5708 5710 5711 5712 5711 5710 5710 5710 5710 5710 5709 5709 5709 5709 5709 5710 5710 5710 5710 5710 5711 5711 5711 5711 5711 5711 5710 5710 5710 5709 5709 5709 5708
5674 5663 5655 5651 5659 5668 5677 5683 5685 5686 5689 5693 5690 5686 5690 5700 5705 5705 5705 5705 5704 5704 5704 5704 5705 5705 5704 5704 5704 5705 5705 5705 5706 5706 5706 5706 5707 5707 5706 5706 5706 5706 5706 5706 5706 5706 5705 5705 5705
5658 5652 5642 5643 5654 5666 5673 5678 5679 5679 5681 5684 5683 5679 5682 5691 5695 5696 5698 5698 5698 5697 5697 5698 5698 5698 5699 5699 5699 5699 5700 5700 5701 5701 5702 5702 5702 5702 5702 5701 5702 5702 5702 5702 5702 5702 5702 5701 5701
5648 5641 5640 5646 5650 5658 5668 5674 5672 5671 5673 5677 5679 5672 5675 5682 5687 5689 5690 5690 5690 5690 5690 5690 5691 5691 5692 5693 5693 5694 5695 5695 5696 5696 5697 5697 5697 5697 5697 5697 5697 5698 5698 5697 5698 5698 5698 5697 5697
5646 5638 5639 5641 5646 5652 5664 5668 5671 5668 5669 5676 5675 5666 5667 5675 5679 5680 5680 5680 5680 5681 5682 5682 5683 5684 5685 5686 5687 5688 5689 5689 5690 5691 5691 5692 5692 5692 5692 5692 5692 5693 5693 5693 5693 5693 5693 5693 5692
5642 5628 5630 5639 5643 5649 5658 5658 5663 5668 5666 5666 5668 5668 5671 5672 5671 5670 5668 5668 5669 5671 5672 5674 5675 5676 5678 5679 5680 5682 5683 5683 5684 5685 5686 5687 5687 5687 5687 5687 5687 5688 5688 5689 5689 5689 5689 5688 5688
5629 5621 5633 5643 5646 5646 5649 5650 5652 5656 5654 5655 5656 5660 5663 5662 5662 5660 5659 5659 5660 5662 5664 5665 5667 5669 5671 5672 5673 5674 5675 5676 5677 5679 5680 5682 5682 5683 5683 5682 5683 5683 5683 5684 5684 5684 5684 5683 5683
5625 5624 5632 5638 5642 5642 5641 5642 5645 5645 5644 5648 5649 5652 5654 5653 5653 5654 5653 5653 5655 5656 5657 5659 5661 5662 5664 5665 5666 5667 5668 5669 5671 5672 5674 5676 5677 5677 5677 5677 5677 5678 5678 5678 5679 5679 5678 5678 5678
5620 5625 5629 5633 5635 5634 5634 5635 5636 5638 5643 5648 5649 5650 5649 5648 5648 5649 5648 5648 5650 5651 5652 5653 5655 5656 5657 5658 5658 5659 5661 5663 5665 5667 5669 5671 5672 5672 5672 5672 5672 5673 5673 5673 5673 5674 5673 5673 5673
5613 5619 5623 5625 5626 5626 5627 5628 5629 5634 5640 5642 5643 5643 5643 5644 5644 5645 5645 5645 5646 5646 5647 5648 5649 5649 5650 5650 5651 5652 5655 5657 5660 5662 5664 5665 5667 5667 5667 5667 5667 5667 5668 5668 5668 5668 5668 5668 5667
5609 5610 5614 5616 5617 5619 5618 5621 5621 5631 5634 5634 5635 5635 5637 5639 5640 5639 5640 5640 5641 5642 5642 5642 5642 5643 5643 5643 5644 5646 5648 5651 5654 5656 5658 5660 5661 5661 5661 5661 5661 5662 5662 5662 5662 5662 5662 5661 5660
5602 5600 5603 5608 5610 5612 5611 5611 5619 5628 5627 5627 5629 5631 5632 5634 5635 5636 5638 5638 5638 5637 5637 5636 5636 5636 5637 5638 5638 5639 5642 5645 5647 5650 5651 5654 5655 5655 5656 5655 5655 5656 5656 5656 5656 5655 5655 5654 5654
5591 5588 5588 5602 5604 5605 5598 5604 5620 5621 5619 5619 5622 5625 5626 5628 5630 5633 5634 5635 5634 5633 5633 5632 5631 5630 5631 5632 5633 5634 5636 5639 5641 5644 5646 5648 5649 5650 5650 5650 5649 5650 5650 5650 5649 5649 5648 5647 5646
5575 5574 5580 5591 5598 5597 5593 5599 5614 5615 5613 5614 5616 5619 5620 5622 5625 5628 5630 5631 5630 5630 5629 5627 5626 5625 5625 5626 5627 5628 5630 5633 5635 5638 5640 5641 5643 5644 5644 5644 5644 5643 5643 5642 5643 5642 5641 5639 5638
5568 5569 5576 5582 5591 5588 5586 5595 5606 5608 5607 5609 5612 5613 5615 5618 5622 5624 5625 5625 5625 5624 5624 5622 5620 5620 5619 5620 5620 5621 5622 5625 5628 5631 5633 5635 5636 5637 5638 5637 5637 5636 5635 5635 5635 5635 5634 5632 5631
5568 5567 5569 5578 5585 5581 5581 5589 5599 5602 5600 5603 5605 5607 5610 5615 5618 5619 5620 5620 5620 5618 5617 5617 5616 5615 5615 5615 5615 5615 5616 5619 5622 5625 5628 5629 5630 5631 5631 5630 5630 5630 5629 5628 5628 5627 5625 5623 5624
5558 5557 5561 5569 5575 5574 5573 5582 5594 5597 5599 5603 5605 5606 5608 5610 5611 5613 5614 5615 5615 5614 5614 5613 5613 5612 5612 5612 5612 5613 5613 5613 5616 5618 5620 5621 5622 5624 5624 5624 5623 5623 5622 5620 5620 5620 5618 5616 5616
5551 5551 5555 5557 5562 5565 5564 5570 5585 5595 5598 5601 5605 5608 5608 5609 5609 5609 5608 5609 5610 5610 5610 5609 5609 5609 5608 5607 5606 5606 5606 5606 5607 5610 5612 5614 5616 5617 5618 5617 5617 5616 5616 5614 5613 5613 5612 5609 5608
5545 5555 5552 5550 5543 5541 5550 5547 5576 5587 5591 5598 5601 5602 5604 5607 5607 5607 5606 5606 5606 5607 5606 5605 5605 5604 5603 5603 5603 5603 5604 5603 5604 5605 5608 5609 5610 5610 5611 5611 5611 5610 5609 5607 5607 5606 5606 5604 5601
5542 5548 5544 5541 5535 5531 5538 5538 5563 5578 5584 5595 5599 5600 5602 5603 5604 5603 5603 5603 5602 5601 5600 5599 5599 5598 5598 5599 5599 5600 5599 5599 5599 5600 5601 5600 5601 5602 5603 5603 5603 5603 5602 5600 5600 5599 5598 5597 5595
5535 5533 5530 5523 5519 5523 5539 5533 5554 5569 5586 5594 5597 5598 5599 5599 5599 5599 5599 5597 5596 5594 5593 5593 5593 5593 5593 5594 5594 5595 5594 5594 5594 5594 5593 5592 5593 5593 5594 5595 5596 5595 5594 5593 5592 5592 5591 5590 5588
5520 5513 5509 5508 5508 5525 5537 5535 5556 5576 5586 5591 5594 5595 5595 5595 5594 5593 5591 5591 5590 5589 5588 5587 5587 5587 5587 5588 5588 5589 5589 5589 5589 5589 5588 5587 5586 5586 5587 5587 5587 5587 5587 5586 5585 5583 5583 5582 5580
5508 5512 5509 5510 5511 5517 5524 5531 5557 5573 5580 5586 5589 5590 5590 5588 5588 5589 5588 5587 5585 5584 5583 5582 5582 5581 5581 5582 5582 5582 5582 5582 5582 5582 5581 5581 5580 5580 5580 5579 5579 5579 5578 5578 5576 5575 5574 5573 5571
5499 5499 5509 5503 5503 5504 5510 5525 5549 5564 5569 5573 5577 5579 5580 5581 5582 5582 5582 5581 5580 5579 5578 5577 5577 5576 5576 5577 5576 5575 5575 5575 5575 5574 5574 5574 5573 5572 5571 5570 5569 5569 5569 5568 5567 5565 5564 5563 5562
5499 5498 5490 5493 5499 5506 5516 5522 5536 5549 5556 5563 5566 5569 5572 5573 5574 5574 5575 5574 5573 5572 5571 5570 5571 5571 5570 5569 5568 5568 5568 5567 5566 5566 5566 5565 5564 5563 5562 5561 5560 5559 5558 5558 5557 5556 5554 5552 5551
5483 5485 5487 5485 5490 5499 5505 5520 5540 5544 5550 5554 5559 5562 5564 5565 5565 5565 5566 5566 5566 5564 5563 5563 5563 5563 5562 5562 5561 5561 5560 5559 5558 5558 5557 5556 5556 5554 5553 5552 5551 5550 5549 5548 5547 5545 5543 5542 5540
5478 5480 5480 5479 5479 5483 5492 5511 5535 5536 5540 5544 5547 5551 5552 5553 5554 5554 5555 5556 5556 5556 5555 5555 5555 5555 5555 5554 5553 5552 5550 5550 5550 5549 5548 5547 5547 5546 5544 5543 5542 5540 5539 5538 5536 5535 5533 5531 5529